User: anonymous   Login
Location: Battlefield Observatory
(36.7579°N, 76.2613°W)
Time: 00:46:59
(UTC-05:00)
Language:

Envisat - Orbit

View from above orbital plane
View from above orbital plane
View from above satellite
View from above satellite

Ground track
Ground track

The orbit data is extracted from the following two-line orbital elements,

1 27386U 02009A   18323.69866247 -.00000006  00000-0  11424-4 0  9995
2 27386  98.1697 350.3090 0001304  96.8682  13.4594 14.37934580875870
Epoch (UTC): 19 November 2018 16:46:04
Eccentricity: 0.0001304
inclination: 98.1697°
perigee height: 764 km
apogee height: 766 km
right ascension of ascending node: 350.3090°
argument of perigee: 96.8682°
revolutions per day: 14.37934580
mean anomaly at epoch: 13.4594°
orbit number at epoch: 87587

The dashed part of the orbit path shows where the satellite is in the earth's shadow,  

DLR